Regional Weather Roundup
Issued by NWS Wakefield, VA

Home | Current Version | Previous Version | Text Only | Print | Product List | Glossary On
Versions: 1 2 3 4 5 6 7 8 9 10 11 12 13 14 15 16 17 18 19 20 21 22 23 24 25 26 27 28 29 30 31 32 33 34 35 36 37 38 39 40 41 42 43 44 45 46 47 48 49 50
000
ASUS41 KAKQ 231410
RWRAKQ

REGIONAL WEATHER ROUNDUP
NATIONAL WEATHER SERVICE WAKEFIELD VA
1000 AM EDT WED JUL 23 2014

Note: "fair" indicates few or no clouds below 12,000 feet with no
significant weather and/or obstructions to visibility. * = Denotes
station may not report precipitation (e.g., rain,snow,etc.),
thunder or fog.

VAZ042-051-052>054-056-231500-
NORTHERN VIRGINIA

CITY           SKY/WX    TMP DP  RH WIND       PRES   REMARKS
WASH NATIONAL  MOSUNNY   83  72  69 S8        29.99F
DULLES         MOSUNNY   81  71  71 CALM      29.99F
FORT BELVOIR   DRIZZLE   82  72  71 VRB3      30.00F
QUANTICO       MOSUNNY   80  73  79 S8        30.00F
FREDERICKSBRG* PTSUNNY   83  73  69 SW6       30.00S
STAFFORD*      MOSUNNY   81  76  84 CALM      30.04F
WARRENTON      SUNNY     84  78  82 SW3       30.00F
CULPEPER*      SUNNY    N/A N/A N/A SW5       30.01F
MANASSAS*      MOSUNNY   81  73  78 S5        30.00F
LEESBURG*      SUNNY     82  75  78 SW5       30.00F
WINCHESTER     SUNNY     82  70  65 SW7       30.00F
$$

VAZ048-049-060>072-079>083-231500-
CENTRAL AND SOUTH CENTRAL VIRGINIA...AND NORTH CENTRAL NORTH CAROLINA

CITY           SKY/WX    TMP DP  RH WIND       PRES   REMARKS
RICHMOND       MOSUNNY   84  71  65 S8        30.03F
CHESTERFIELD*  SUNNY     84  66  54 SW8       30.05S
HANOVER        SUNNY     86  70  58 W9        30.03F
TAPPAHANNOCK*  SUNNY     83  70  65 S7        30.03F
CHARLOTTSVILLE PTSUNNY   81  71  71 SW6       30.02F
ORANGE*        PTSUNNY   84  72  65 S8        30.02F
LOUISA*        MOSUNNY   82  72  69 S6        30.01F
FARMVILLE*     PTSUNNY   84  70  61 SW7       30.02F
SOUTH HILL*    MOSUNNY   81  77  89 SW3       30.11F
ROANOKE RAPIDS PTSUNNY   70  68  94 SW3       30.06F
RALEIGH        PTSUNNY   82  72  71 W5        30.08S
$$

VAZ088>098-231500-
SOUTHEAST VIRGINIA

CITY           SKY/WX    TMP DP  RH WIND       PRES   REMARKS
NORFOLK        PTSUNNY   79  71  76 W5        30.04S
VIRGINIA BEACH PTSUNNY   80  73  79 VRB3      30.03S
NORFOLK NAVAL  PTSUNNY   78  72  81 W6        30.06S
WEST POINT*    SUNNY     82  72  70 S5        30.05S
NEWPORT NEWS   CLOUDY    82  72  71 SW8       30.04F
LANGLEY AFB    CLOUDY    79  74  84 SW8       30.04S
FORT EUSTIS    CLOUDY    77  77 100 SW5       30.03S
WILLIAMSBURG*  MOSUNNY   81  73  78 W6        30.05F
FRANKLIN*      CLOUDY    75  75 100 CALM      30.05F
WAKEFIELD      CLOUDY    79  72  79 CALM      30.05S
$$

VAZ020-022-025-037-045-231500-
WESTERN AND SOUTHWEST VIRGINIA

CITY           SKY/WX    TMP DP  RH WIND       PRES   REMARKS
STAUNTON*      MOSUNNY   79  69  72 SW6       30.07F
HOT SPRINGS VA SUNNY     69  64  82 W8        30.22F
LYNCHBURG      SUNNY     80  70  71 VRB6      30.08F
DANVILLE       MOSUNNY   83  71  67 W8        30.07F
MARTINSVILLE   MOSUNNY   82  71  67 W3        30.11S
ROANOKE        MOSUNNY   80  67  64 W8        30.10F
BLACKSBURG     SUNNY     77  72  83 W3        30.17F
DUBLIN*        PTSUNNY   78  70  75 S3        30.17S
MARION*        SUNNY     75  70  84 SW5       30.20F
HILLSVILLE*    SUNNY     73  66  79 NW5       30.19S
RICHLANDS*     MOSUNNY   76  69  79 CALM      30.19S
WISE*          CLOUDY    75  70  83 CALM      30.21R
ABINGDON*      CLOUDY    76  70  81 W6        30.18S
$$

MDZ021>025-VAZ099-100-231500-
SOUTHERN MARYLAND AND THE DELMARVA PENINSULA

CITY           SKY/WX    TMP DP  RH WIND       PRES   REMARKS
PATUXENT RIVER MOSUNNY   82  72  71 SW9       30.01F
BAY BRIDGE APT   N/A     79  72  78 S6        29.99F
LEONARDTOWN    MOSUNNY   81  70  69 SW6       30.02F
DOVER          SUNNY     82  76  81 SW8       29.98F
GEORGETOWN     MOSUNNY   81  73  76 S10       30.01F
EASTON         MOSUNNY   84  75  74 SW8       30.04F
CAMBRIDGE      SUNNY     82  72  69 S5        30.00F
SALISBURY      NOT AVBL
OCEAN CITY     SUNNY     81  74  79 S6        30.02F
WALLOPS ISLAND PTSUNNY   82  73  74 SW6       30.02F
ACCOMACK*        N/A     81  72  74 SW6       30.03F
$$

NCZ012>017-030>032-231500-
EASTERN NORTH CAROLINA

CITY           SKY/WX    TMP DP  RH WIND       PRES   REMARKS
ELIZABETH CITY PTSUNNY   80  74  81 W8        30.05F
AHOSKIE*       CLOUDY    77  73  89 CALM      30.06S
EDENTON*       PTSUNNY   80  75  83 NW5       30.05F
CURRITUCK*     PTSUNNY   81  74  77 W6        30.05F
KILL DEVIL HLS MOSUNNY   79  75  87 W9        30.04S
MANTEO         NOT AVBL
CAPE HATTERAS  MOSUNNY   82  75  79 W8        30.06S
GOLDSBORO      MOSUNNY   81  81 100 W7        30.05F
WASHINGTON     PTSUNNY   78  74  88 NW3       30.07S
GREENVILLE     CLOUDY    79  75  89 W6        30.08F
NEW BERN       CLOUDY    82  74  76 W6        30.08S
WILMINGTON     SUNNY     84  73  69 NW6       30.08R
$$

VAZ048-231500-
ELSEWHERE

CITY           SKY/WX    TMP DP  RH WIND       PRES   REMARKS
HARRISBURG PA  MOSUNNY   82  71  69 SE5       29.95F
BALTIMORE      MOSUNNY   82  71  69 VRB5      29.98F
ANNAPOLIS      PTSUNNY   81  72  74 SW6       29.98F
ANDREWS AFB    SUNNY     82  73  74 SW6       30.00F
WILMINGTON DE  SUNNY     82  73  74 SW9       29.99F
PHILADELPHIA   MOSUNNY   81  69  67 SW9       29.98F
WILDWOOD NJ*   SUNNY     81  72  74 W7        30.02F
ATLANTIC CITY  SUNNY     80  72  76 SW7       29.99F
HENDERSON NC   SUNNY     80  71  74 SW6       30.07F
GREENSBORO     MOSUNNY   81  72  74 W8        30.09F
ROCKY MOUNT    SUNNY     81  74  79 W3        30.06F
FAYETTEVILLE   MOSUNNY   84  74  71 W8        30.07S
CHARLOTTE      MOSUNNY   80  71  74 CALM      30.11S
$$

VAZ100-231500-
MARINE

STATION/POSITION TIME  TEMP    WIND        PRES    WAVE   SWELL
                       AIR SEA DIR/SP/G            HT/PER HT/PER
                 (UTC) (F)     (DEG/KT/KT) (MB)    (FT/S) (FT/S)
44066 TX TWR #4  1400   73 74  240/  8/ 10 1016.3F   2/ 8   2/ 8
LEWES DE         1400   80 71  220/  4/  6 1015.7F
15NM E FENWICK I 1400   75 76              1016.8F   2/ 7
OCEAN-CITY-INLET 1400   76 71  190/  4/  6 1016.2S
WACHAPREAGUE VA  1400   83 80  270/  1/  3 1016.7S
THOMAS POINT MD  1400   77 79  190/ 10/ 10 1016.0F
GOOSES REEF MD   1400   78     200/  8/  8 1016.5F
COVE POINT MD    1400   79     190/  7/  9 1016.0F
SOLOMONS ISLAND  1400      81                N/A
BISHOPS HEAD MD  1400   77 80  230/  6/  7 1016.2R
PINEY POINT MD   1400          150/  2/  2   N/A
POTOMAC MD       1400   78     230/  4/  6 1015.9F
CAMBRIDGE MD     1400   81 80  220/  7/  8 1015.8S
LEWISETTA VA     1400   81 81  210/  5/  7 1016.2S
RAPPAHANNOCK LGT 1400          230/  6/  7 1017.5S
STINGRAY PT      1400   77     230/  8/  8 1017.5S
YORK RVR RNG VA  1400   79     270/  4/  5 1016.5F
YORKTOWN VA      1400   77 80  260/  3/  5 1016.8S
JAMESTOWN VA     1400   75     230/  6/  8   N/A
DOMINION TERM VA 1400   75     250/  5/  6 1017.5S
KIPTOPEKE VA     1400      80  290/  7/  7   N/A
CHES BAY BRIDGE  1400   76 78  270/  7/  8 1016.7S
CAPE HENRY VA    1400   77     300/  8/  9 1016.0F
WILLOUBY STN VA  1400          270/  6/  8 1016.7R
S CRANEY ISL VA  1400          250/  5/  6 1017.5R
CAPE HENRY BUOY  1400      76                N/A     2/10
1ST LANDING BUOY 1400   77     280/  6/  8 1016.9F
CAPE CHARLES BUO 1400      76                N/A     2/10
OFFSHORE WE BUOY 1400      77                N/A     2/ 7
64NM E OF VA BCH 1400   77 78  270/  6/  8 1016.9S   3/ 7   2/ 7
DUCK PIER NC     1400   77 73  270/  6/  8 1016.9R
44056 DUCK FRF   1400                        N/A     2/ 7
OREGON INLET NC  1400   80 79  260/  6/  9 1017.5F
HATTERAS NC      1400   79 82  280/ 10/ 13 1018.3F
DIAMOND SHLS NC  1300          VRB 14/ 16  1017.8S   3/10   2/10
CAPE LOOKOUT NC  1300   81     260/  9/ 10 1018.1R
$$


USA.gov is the U.S. government's official web portal to all federal, state and local government web resources and services.